This demonstration page uses our WeatherBlox Daily Observations layout. Learn more.

40.92945, -100.16068

Hourly Observations for June 19, 2019

Temp ( °F °C ) Dew Point ( °F °C ) Humidity (%) Winds ( mph kmh ) Pressure ( in mb ) Visibility ( mi km ) Precip ( " mm )
12:15 am 00:15 Cloudy 58 14.2 57 14.1 99 99 ESE 3 6 29.91 1013 7 11.265408 0 0
12:35 am 00:35 Cloudy 58 14.3 57 14.1 99 99 ESE 3 6 29.91 1013 7 11.265408 0 0
12:55 am 00:55 Cloudy 57 14.1 57 14 99 99 Calm 29.91 1013 7 11.265408 0 0
1:15 am 01:15 Cloudy 58 14.2 57 14 99 99 Calm 29.88 1012 10 16.09344 0 0
1:35 am 01:35 Mostly Cloudy 57 13.7 56 13.5 99 99 Calm 29.88 1012 10 16.09344 0 0
1:55 am 01:55 Mostly Cloudy 56 13.1 56 13.1 100 100 Calm 29.88 1012 7 11.265408 0 0
2:15 am 02:15 Partly Cloudy with Mist and Fog 55 12.8 55 12.8 100 100 Calm 29.88 1012 5 8.04672 0 0
2:35 am 02:35 Mostly Cloudy with Mist and Fog 55 12.8 55 12.8 100 100 Calm 29.88 1012 2.5 4.02336 0 0
2:55 am 02:55 Cloudy with Mist and Fog 56 13.2 56 13.2 100 100 Calm 29.88 1012 4 6.437376 0 0
3:15 am 03:15 Cloudy 56 13.6 56 13.6 100 100 Calm 29.88 1012 7 11.265408 0 0
3:35 am 03:35 Cloudy with Mist and Fog 56 13.6 56 13.6 100 100 Calm 29.88 1012 4 6.437376 0 0
3:55 am 03:55 Cloudy with Mist and Fog 56 13.5 56 13.5 100 100 N 3 6 29.85 1011 5 8.04672 0 0
4:15 am 04:15 Cloudy with Mist and Fog 57 13.7 57 13.7 100 100 NNE 3 6 29.85 1011 5 8.04672 0 0
4:35 am 04:35 Cloudy with Mist and Fog 57 13.8 57 13.8 100 100 NE 3 6 29.85 1011 5 8.04672 0 0
4:55 am 04:55 Cloudy with Mist and Fog 57 13.7 57 13.7 100 100 ENE 3 6 29.85 1011 5 8.04672 0 0
5:15 am 05:15 Cloudy with Mist and Fog 56 13.5 56 13.5 100 100 ENE 3 6 29.85 1011 4 6.437376 0 0
5:35 am 05:35 Cloudy with Mist and Fog 56 13.5 56 13.5 100 100 Calm 29.85 1011 2.5 4.02336 0 0
5:55 am 05:55 Cloudy with Mist and Fog 56 13.3 56 13.3 100 100 Calm 29.85 1011 1.25 2.01168 0 0
6:15 am 06:15 Cloudy with Mist and Fog 56 13.4 56 13.4 100 100 Calm 29.85 1011 0.75 1.207008 0 0
6:35 am 06:35 Cloudy with Mist and Fog 56 13.5 56 13.5 100 100 Calm 29.85 1011 0.75 1.207008 0 0
6:55 am 06:55 Cloudy with Mist and Fog 56 13.5 56 13.5 100 100 Calm 29.85 1011 0.75 1.207008 0 0
7:15 am 07:15 Cloudy with Mist and Fog 57 13.7 57 13.7 100 100 Calm 29.85 1011 1.5 2.414016 0 0
7:35 am 07:35 Cloudy with Mist and Fog 56 13.6 56 13.6 100 100 Calm 29.85 1011 2.5 4.02336 0 0
7:55 am 07:55 Cloudy with Mist and Fog 57 14 57 14 100 100 Calm 29.85 1011 3 4.828032 0 0
8:15 am 08:15 Cloudy with Mist and Fog 58 14.2 57 14.1 99 99 Calm 29.85 1011 4 6.437376 0 0
8:35 am 08:35 Cloudy with Light Rain 58 14.2 57 14.1 99 99 Calm 29.85 1011 5 8.04672 0 0
8:55 am 08:55 Cloudy with Rain 58 14.4 58 14.2 99 99 Calm 29.85 1011 5 8.04672 0 0
9:15 am 09:15 Cloudy with Light Rain 58 14.7 58 14.5 99 99 W 5 7 29.85 1011 5 8.04672 0.01 0.254
9:35 am 09:35 Cloudy with Light Rain 60 15.5 59 14.8 96 96 Calm 29.83 1010 7 11.265408 0.01 0.254
9:55 am 09:55 Cloudy 60 15.8 59 15 95 95 E 5 7 29.8 1009 10 16.09344 0.01 0.254
10:15 am 10:15 Cloudy 61 16.3 59 15.2 93 93 Calm 29.83 1010 10 16.09344 0 0
10:35 am 10:35 Cloudy 62 16.5 59 14.9 90 90 Calm 29.8 1009 10 16.09344 0 0
10:55 am 10:55 Cloudy 62 16.8 59 15.2 90 90 Calm 29.8 1009 10 16.09344 0 0
11:15 am 11:15 Cloudy 63 17.4 60 15.5 89 89 Calm 29.8 1009 10 16.09344 0 0
11:35 am 11:35 Cloudy 64 17.9 60 15.6 87 87 Calm 29.8 1009 10 16.09344 0 0
11:55 am 11:55 Cloudy 64 17.9 60 15.6 87 87 SSE 5 7 29.8 1009 10 16.09344 0 0
12:15 pm 12:15 Mostly Cloudy 66 19.1 60 15.7 81 81 SSE 3 6 29.77 1008 10 16.09344 0 0
12:35 pm 12:35 Cloudy 67 19.4 61 16 81 81 S 6 9 29.74 1007 10 16.09344 0 0
12:55 pm 12:55 Cloudy 66 19 60 15.8 82 82 S 7 11 29.74 1007 10 16.09344 0 0
1:15 pm 13:15 Cloudy 66 18.9 60 15.4 80 80 SW 7 11 29.74 1007 10 16.09344 0 0
1:35 pm 13:35 Cloudy 66 18.7 60 15.4 81 81 SW 7 11 29.74 1007 10 16.09344 0 0
1:55 pm 13:55 Mostly Cloudy 68 20.2 62 16.5 79 79 WSW 3 6 29.74 1007 10 16.09344 0 0
2:15 pm 14:15 Mostly Cloudy 69 20.5 61 15.9 75 75 S 3 6 29.71 1006 10 16.09344 0 0
2:35 pm 14:35 Cloudy 70 21 61 16.2 74 74 Calm 29.71 1006 10 16.09344 0 0
2:55 pm 14:55 Cloudy 69 20.4 60 15.6 74 74 Calm 29.71 1006 10 16.09344 0 0
3:15 pm 15:15 Mostly Cloudy 70 21.3 61 15.9 71 71 Calm 29.68 1005 10 16.09344 0 0
3:35 pm 15:35 Mostly Cloudy 71 21.9 60 15.8 68 68 Calm 29.68 1005 10 16.09344 0 0
3:55 pm 15:55 Mostly Cloudy 71 21.8 61 16 70 70 Calm 29.65 1004 10 16.09344 0 0
4:15 pm 16:15 Mostly Cloudy 73 22.5 61 16.2 68 68 SW 3 6 29.65 1004 10 16.09344 0 0
4:35 pm 16:35 Partly Cloudy 73 22.9 62 16.6 68 68 S 5 7 29.65 1004 10 16.09344 0 0
4:55 pm 16:55 Partly Cloudy 73 22.9 62 16.5 67 67 SSE 3 6 29.65 1004 10 16.09344 0 0
5:15 pm 17:15 Partly Cloudy 74 23.3 62 16.6 66 66 S 6 9 29.65 1004 10 16.09344 0 0
5:35 pm 17:35 Partly Cloudy 73 22.8 62 16.6 68 68 Calm 29.65 1004 10 16.09344 0 0
5:55 pm 17:55 Partly Cloudy 74 23.3 60 15.7 62 62 Calm 29.65 1004 10 16.09344 0 0
6:15 pm 18:15 Partly Cloudy 74 23.6 62 16.5 65 65 S 8 13 29.62 1003 10 16.09344 0 0
6:35 pm 18:35 Sunny 74 23.3 61 16.2 64 64 S 3 6 29.62 1003 10 16.09344 0 0
6:55 pm 18:55 Sunny 75 23.8 62 16.6 64 64 SSW 6 9 29.62 1003 10 16.09344 0 0
7:15 pm 19:15 Sunny 73 23 62 16.6 67 67 S 3 6 29.62 1003 10 16.09344 0 0
7:35 pm 19:35 Sunny 73 22.8 62 16.6 68 68 SSW 7 11 29.62 1003 10 16.09344 0 0
7:55 pm 19:55 Sunny 73 22.5 62 16.7 70 70 S 6 9 29.62 1003 10 16.09344 0 0
8:15 pm 20:15 Sunny 71 21.9 63 17 74 74 S 6 9 29.62 1003 10 16.09344 0 0
8:35 pm 20:35 Sunny 69 20.4 62 16.9 80 80 SSE 7 11 29.65 1004 10 16.09344 0 0
8:55 pm 20:55 Sunny 67 19.2 62 16.6 85 85 S 7 11 29.65 1004 10 16.09344 0 0
9:15 pm 21:15 Clear 65 18.2 62 16.6 90 90 SSE 7 11 29.65 1004 10 16.09344 0 0
9:35 pm 21:35 Clear 65 18.6 62 16.6 88 88 SE 6 9 29.65 1004 10 16.09344 0 0
9:55 pm 21:55 Clear 64 17.8 62 16.4 92 92 SSE 7 11 29.65 1004 10 16.09344 0 0
10:15 pm 22:15 Clear 65 18.1 62 16.5 90 90 SSE 8 13 29.65 1004 10 16.09344 0 0
10:35 pm 22:35 Clear 64 18 62 16.6 92 92 SSE 8 13 29.65 1004 10 16.09344 0 0
10:55 pm 22:55 Clear 64 18 62 16.7 92 92 S 7 11 29.65 1004 10 16.09344 0 0
11:15 pm 23:15 Clear 64 18 62 16.8 93 93 S 7 11 29.65 1004 10 16.09344 0 0
11:35 pm 23:35 Clear 65 18.1 62 16.8 92 92 S 8 13 29.65 1004 10 16.09344 0 0
11:55 pm 23:55 Clear 65 18.2 62 16.9 92 92 SSE 9 15 29.65 1004 10 16.09344 0 0

Powered by AerisWeather